Vorticity
nan nan nan nan nan nan nan nan nan nan nan nan nan nan nan nan nan nan nan nan nan nan nan nan nan nan nan nan nan nan nan nan nan nan nan nan nan nan nan nan nan nan nan nan nan nan nan nan nan nan nan nan nan nan nan nan nan nan nan nan nan nan nan nan nan nan nan nan nan nan nan nan nan nan nan nan nan nan nan nan nan nan nan nan nan nan nan nan nan nan nan nan nan nan nan nan nan nan nan nan nan nan nan
nan 4 4 4 3 3 2 2 3 3 3 3 3 3 3 3 3 4 4 5 4 4 3 3 3 3 4 3 3 3 4 4 4 3 4 5 5 6 6 7 7 7 7 8 9 9 14 15 12 8 5 5 5 5 5 6 5 5 5 4 5 4 0 -3 -2 1 5 7 8 8 8 7 6 5 5 5 5 5 6 7 9 10 11 11 10 8 7 6 5 4 4 4 4 5 6 7 7 7 6 6 7 7 nan
nan 4 3 3 3 3 2 2 3 4 4 4 4 4 4 4 4 4 4 5 5 5 4 4 4 4 4 4 3 3 3 4 4 4 5 6 6 7 7 7 7 7 8 9 10 10 14 14 13 9 6 5 5 5 4 5 5 5 5 5 5 4 -1 -1 -0 2 6 8 9 9 9 8 8 7 6 5 4 4 5 5 7 9 11 12 12 11 8 6 5 4 3 3 4 4 5 6 6 6 7 7 7 7 nan
nan 4 3 3 3 3 2 3 3 4 5 5 5 5 4 4 4 4 4 5 5 5 5 4 4 4 4 4 4 4 4 5 5 5 6 6 7 7 7 7 7 8 8 10 10 10 12 11 10 8 6 6 6 5 5 5 5 5 5 6 6 4 -2 -2 0 4 7 9 10 10 10 10 9 8 7 6 5 5 5 4 5 7 10 13 14 13 10 8 6 4 3 4 4 4 5 5 6 6 6 7 7 7 nan
nan 5 5 5 4 3 3 3 3 4 4 5 5 5 5 5 4 4 4 4 5 5 5 4 4 4 4 4 5 5 5 6 6 6 7 7 7 7 7 7 7 8 9 10 9 9 7 9 8 8 7 6 6 6 6 7 6 6 6 6 5 2 -1 0 2 5 8 10 10 11 11 11 11 10 9 8 7 6 5 5 5 6 8 11 13 13 11 9 7 6 4 4 5 5 5 5 6 6 6 7 7 7 nan
nan 7 7 6 5 4 4 3 3 4 4 5 5 5 5 5 4 4 4 4 5 5 5 5 5 5 5 6 6 6 6 7 7 7 7 7 7 7 7 7 7 8 9 9 9 8 7 10 8 7 6 6 6 6 7 7 7 7 6 6 4 1 1 2 4 6 7 9 9 10 11 12 12 12 11 10 10 8 7 6 6 5 6 8 10 11 11 10 8 7 6 6 5 5 6 6 6 7 7 7 7 7 nan
nan 9 9 7 5 4 4 4 4 4 4 4 5 5 5 5 4 4 4 5 5 5 5 5 6 6 6 7 7 7 7 7 8 8 8 8 8 7 7 7 8 8 9 9 8 7 8 10 7 6 5 6 6 6 6 7 7 6 6 5 3 1 2 3 5 6 7 8 8 8 9 10 11 12 13 12 11 9 8 8 7 6 6 6 7 8 9 9 9 8 7 6 6 6 6 7 7 7 7 7 7 7 nan
nan 7 7 6 5 4 3 3 4 4 5 5 5 5 5 5 5 5 5 5 5 5 6 6 7 7 7 7 7 7 7 8 7 7 8 7 7 7 7 7 8 9 9 8 7 6 7 9 7 6 5 6 6 5 5 7 8 8 7 5 4 4 3 4 5 6 6 6 7 7 8 9 9 10 11 12 11 11 10 8 7 7 7 7 7 7 7 8 8 8 8 7 7 7 7 7 7 7 8 8 7 7 nan
nan 6 6 5 4 3 3 4 4 5 6 6 5 5 5 5 5 5 5 5 5 6 6 7 7 7 8 7 7 7 7 7 7 7 7 7 7 7 7 7 8 9 9 8 7 6 8 10 8 7 6 6 5 5 5 7 8 8 8 5 3 2 2 4 5 5 6 7 7 8 9 8 8 8 9 10 10 10 9 7 7 7 7 7 7 6 7 8 8 8 8 8 8 8 8 8 8 8 8 8 8 7 nan
nan 5 5 4 4 3 3 3 4 5 5 5 5 5 5 5 4 4 4 5 6 6 7 7 7 7 7 7 7 7 7 7 7 7 7 6 6 6 7 8 8 9 9 8 7 6 9 11 9 7 7 6 6 6 8 8 7 8 8 4 0 0 3 4 5 6 7 8 9 9 10 9 8 7 7 7 7 7 7 8 7 7 7 8 7 6 7 8 8 7 7 7 7 7 7 8 8 7 7 8 8 8 nan
nan 4 5 5 4 4 4 4 4 4 4 5 5 5 4 4 4 4 5 5 6 6 7 7 7 7 7 7 7 7 6 6 6 6 6 6 6 6 7 8 9 9 8 7 7 7 12 13 10 8 7 6 7 8 9 8 8 8 7 1 -0 2 4 5 6 7 8 9 9 9 8 8 7 7 7 7 6 6 6 6 6 7 8 9 9 8 9 8 7 7 6 6 6 6 6 7 8 8 9 9 10 10 nan
nan 4 5 6 5 5 4 4 4 4 4 4 4 4 4 4 4 5 5 6 6 6 6 6 6 6 6 6 6 6 6 6 6 6 6 6 6 7 8 9 9 9 8 8 9 11 16 14 11 8 7 7 8 9 9 8 8 8 3 -3 -0 3 5 6 7 8 9 8 8 8 7 7 7 6 6 6 7 7 7 7 7 7 9 9 9 9 9 9 8 8 7 7 7 7 7 8 9 9 9 9 11 11 nan
nan 5 6 6 6 5 4 4 4 4 4 4 4 4 4 4 5 5 5 6 6 6 6 6 6 6 6 6 6 7 7 7 7 7 7 8 8 8 9 10 10 10 10 10 13 16 16 11 9 8 8 8 8 8 7 8 8 6 -2 -3 2 5 7 8 8 8 8 8 7 7 7 7 7 7 7 7 8 10 10 10 11 11 10 8 8 10 10 9 9 10 9 10 9 9 8 8 8 8 7 7 11 12 nan
nan 7 7 6 5 5 4 4 4 4 4 5 5 5 5 5 5 5 5 6 6 6 6 6 6 6 7 7 8 8 9 9 9 9 9 10 10 11 11 12 12 12 13 16 18 16 10 8 8 8 8 8 8 7 7 9 7 3 -4 -0 5 7 8 9 9 8 7 7 7 7 7 7 7 8 8 9 10 11 10 10 12 13 13 12 11 11 10 8 8 8 7 9 9 9 9 9 9 9 7 7 8 8 nan
nan 6 6 6 6 5 4 4 4 5 5 6 6 6 6 6 6 6 6 6 6 6 6 7 7 8 9 10 11 11 12 11 11 11 11 12 12 12 13 13 14 14 18 20 15 10 8 8 8 8 8 8 8 8 9 9 6 -0 -2 4 7 9 10 10 9 9 8 7 7 7 7 8 8 8 8 9 9 9 8 9 11 13 13 14 15 14 11 9 8 7 7 8 8 7 8 9 8 9 8 7 6 5 nan
nan 6 5 5 5 5 4 5 5 6 6 7 7 7 7 7 6 6 6 6 6 7 7 8 9 10 11 13 14 16 15 12 12 11 12 12 13 14 14 15 16 18 20 16 10 8 8 9 9 8 8 8 9 9 10 8 4 -1 2 7 10 11 11 11 10 10 9 8 8 8 8 8 8 8 8 8 8 8 7 7 8 9 11 12 14 13 13 14 12 10 9 8 8 7 6 6 7 8 8 8 5 4 nan
nan 5 4 4 5 5 5 6 7 8 8 8 8 8 8 7 7 7 7 7 8 8 9 11 12 13 14 15 17 21 17 12 11 9 9 11 13 14 15 16 18 19 16 11 9 8 9 9 9 8 8 9 9 9 9 7 2 1 7 11 12 13 13 13 12 12 11 11 10 10 10 10 10 10 10 9 8 7 7 7 7 7 7 8 9 8 11 14 13 11 10 8 8 7 7 7 7 9 8 7 5 5 nan
nan 4 5 5 5 5 7 8 9 10 10 10 10 10 9 9 8 8 8 9 10 11 13 13 14 14 15 16 19 21 16 11 10 8 5 6 10 12 14 15 16 15 12 9 8 9 10 10 10 9 8 8 9 8 9 5 1 4 10 13 14 15 15 15 14 14 13 12 12 12 12 12 12 12 12 11 10 9 9 8 8 7 7 7 7 6 7 10 9 9 8 7 7 7 7 7 7 8 7 6 6 6 nan
nan 5 7 7 7 8 9 10 11 12 13 13 13 12 11 10 10 10 10 11 12 13 14 15 14 14 13 16 18 17 13 11 11 10 6 4 5 8 12 13 12 10 9 7 8 9 10 10 10 9 8 8 8 8 8 4 2 6 11 14 15 15 15 16 16 15 14 14 13 13 12 12 13 13 12 12 11 11 10 10 10 9 9 8 8 7 7 6 6 6 7 6 6 7 7 7 8 9 8 6 7 8 nan
nan 9 9 10 10 11 13 14 14 15 15 15 16 16 14 13 12 11 12 13 13 14 14 14 14 11 11 14 14 13 11 11 11 10 9 6 5 6 8 9 8 7 6 6 8 9 9 9 9 9 8 8 7 8 7 3 1 6 11 13 14 14 15 15 15 15 15 14 13 12 12 11 11 11 11 11 11 11 11 10 10 10 9 10 10 10 9 8 7 6 6 6 6 8 10 10 11 12 11 9 9 9 nan
nan 10 10 11 13 14 15 16 15 15 14 14 17 17 15 12 11 10 11 11 10 10 12 14 13 9 8 10 10 11 10 10 10 9 8 7 7 7 7 7 7 6 5 6 8 9 8 8 8 7 8 8 7 7 4 2 2 7 11 12 13 13 13 14 14 14 14 14 13 12 12 11 10 10 10 11 11 11 10 10 10 10 10 10 11 12 12 11 11 10 9 10 12 12 13 12 14 17 18 16 14 12 nan
nan 8 9 10 12 13 14 13 12 11 9 12 15 14 11 8 7 7 9 10 7 7 10 11 10 8 6 6 7 9 10 9 9 8 7 7 7 7 7 7 7 6 6 7 8 8 8 8 7 7 8 8 7 7 -0 -1 5 8 11 11 12 12 13 13 13 13 13 14 14 13 12 12 11 11 11 11 11 12 11 11 11 11 10 11 13 16 17 16 16 15 14 16 20 19 15 14 16 18 20 20 19 16 nan
nan 7 8 9 10 10 10 9 9 9 7 9 12 10 8 7 7 7 9 9 7 7 8 9 8 7 6 6 6 7 8 9 9 9 8 7 7 7 6 7 7 6 7 8 8 8 8 8 7 7 8 8 8 7 -1 -4 4 8 11 11 12 12 13 13 12 12 13 13 13 13 13 13 12 11 12 12 13 13 13 12 12 12 13 15 19 23 24 20 19 18 18 21 21 18 13 12 13 15 17 20 19 18 nan
nan 8 8 9 9 10 9 9 9 9 8 9 10 9 10 9 8 9 10 9 7 6 5 7 7 6 6 7 7 7 7 7 8 9 9 8 8 7 6 7 8 8 7 7 8 8 8 8 7 7 7 8 8 6 -1 -4 2 8 11 11 11 12 12 13 12 12 12 12 12 12 12 12 11 11 12 12 13 14 14 15 15 16 16 18 21 26 25 21 19 18 20 20 16 11 8 7 8 11 14 17 18 17 nan
nan 9 9 10 11 11 11 10 10 10 11 10 10 9 10 10 9 8 9 8 7 5 5 5 6 6 7 7 8 7 7 6 6 8 8 8 8 8 7 7 9 8 8 8 8 8 7 8 8 7 7 8 8 5 -1 -4 1 7 10 10 11 11 12 12 12 12 12 11 10 10 10 10 10 11 11 12 12 13 13 15 17 17 18 19 20 22 20 16 14 14 15 14 11 7 5 5 6 7 9 11 14 14 nan
nan 9 10 11 11 11 11 11 10 10 10 11 10 9 7 8 8 7 8 7 7 6 6 6 7 8 7 6 7 7 7 5 5 6 7 7 7 7 8 8 8 8 8 8 8 7 7 7 8 7 7 8 8 5 -1 -3 1 6 9 9 10 10 11 11 11 12 11 10 9 9 8 9 9 10 11 12 12 11 12 13 14 15 15 15 14 14 12 10 9 10 10 9 8 7 6 5 4 4 6 6 8 9 nan
nan 10 11 10 10 9 9 9 8 8 7 8 9 8 6 7 7 7 6 7 7 7 7 7 8 9 7 4 5 6 7 5 4 5 6 6 6 6 7 8 8 8 8 9 8 7 6 7 7 7 8 9 8 7 -1 -6 -0 4 8 8 9 9 9 10 10 11 11 10 9 8 8 8 8 9 11 12 12 11 10 10 10 10 10 10 9 8 7 7 8 8 8 9 10 8 7 6 5 3 2 3 4 5 nan
nan 10 9 8 7 7 7 8 7 7 6 7 7 7 7 7 7 7 6 6 6 7 7 8 8 8 8 5 4 5 6 6 5 5 6 6 6 6 6 6 7 7 8 8 7 6 6 6 6 8 9 9 8 8 2 -6 -4 2 6 7 8 8 8 8 9 10 10 9 8 8 8 8 8 8 10 11 11 11 10 8 6 6 6 7 6 5 5 5 6 7 7 8 9 9 8 7 5 4 3 3 2 2 nan
nan 9 7 7 7 7 7 7 7 7 7 8 7 7 7 8 8 7 7 7 7 7 6 6 7 7 8 7 6 6 7 6 5 6 7 7 6 6 6 6 7 7 8 7 6 6 6 6 7 8 8 8 9 8 4 -3 -6 -2 4 6 7 7 7 7 7 8 8 8 8 8 8 8 8 8 9 10 10 10 9 7 6 5 5 6 5 4 4 4 5 5 5 6 7 7 7 8 7 5 5 4 3 3 nan
nan 7 7 8 7 7 7 7 7 8 9 8 7 7 8 8 8 8 7 7 6 6 6 6 7 7 7 7 6 6 7 8 7 6 7 7 6 6 6 6 7 7 8 7 7 6 6 6 7 8 8 7 8 9 7 1 -6 -5 2 5 6 6 6 6 6 6 7 8 8 8 8 8 8 8 9 9 9 8 7 6 6 5 5 6 6 5 4 4 4 4 4 4 5 5 6 6 6 6 6 6 5 5 nan
nan 7 7 7 7 7 8 8 8 8 9 9 8 7 8 9 9 8 8 7 6 6 7 8 8 7 7 7 6 6 7 8 8 7 6 7 6 6 6 7 7 8 8 8 7 7 5 6 7 8 7 6 7 8 8 4 -3 -7 -3 4 4 5 5 6 6 6 6 7 7 7 7 7 8 8 9 9 8 7 7 6 6 5 6 6 6 5 5 5 5 5 4 4 4 5 5 5 6 6 6 6 6 6 nan
nan 7 7 7 7 7 8 8 7 7 9 9 8 8 8 8 8 7 8 7 7 6 7 7 7 7 7 7 7 7 7 7 8 7 6 6 5 6 6 7 7 8 8 8 7 7 7 6 6 7 6 7 8 8 7 6 2 -5 -8 -2 2 4 4 5 5 5 5 5 6 6 7 7 8 8 9 9 9 8 7 6 5 5 6 6 6 6 6 6 5 5 5 5 5 5 5 5 5 5 6 6 6 6 nan
nan 7 7 7 7 7 8 7 7 7 9 9 8 8 8 7 8 7 7 7 7 7 6 6 6 6 7 7 7 8 8 7 7 7 7 6 5 5 6 7 8 8 8 7 7 7 7 6 6 7 8 8 8 8 7 7 6 2 -4 -6 -3 1 3 4 5 5 5 4 5 6 6 7 7 8 9 9 9 8 7 6 6 6 6 6 6 6 6 6 6 6 6 6 5 5 6 6 6 6 6 6 6 6 nan
nan 7 7 7 7 7 8 7 7 7 8 8 8 8 8 7 8 8 8 7 7 7 7 7 7 7 6 6 6 7 8 8 7 7 7 6 6 6 6 7 8 8 8 7 7 7 7 6 6 8 8 7 8 8 8 8 7 7 2 -4 -4 -3 1 3 4 4 4 4 4 5 6 7 7 7 8 9 8 8 7 6 6 6 6 7 7 7 7 7 7 6 6 6 6 6 6 6 6 6 6 7 7 7 nan
nan 7 7 7 7 7 7 7 7 7 7 8 7 7 8 8 8 8 8 8 8 8 8 9 8 8 7 6 6 7 7 8 8 7 6 7 7 7 8 8 8 8 7 7 7 7 7 6 7 7 8 7 7 8 8 7 7 7 3 -0 -0 -2 -1 2 2 2 2 3 4 4 5 6 7 7 8 8 8 7 7 6 6 6 7 7 7 7 7 7 7 7 7 7 7 7 7 7 7 7 7 7 8 8 nan
nan 7 7 7 7 7 7 7 6 7 8 8 8 7 7 8 8 8 8 8 8 8 8 9 9 9 8 7 6 6 7 9 8 7 7 8 9 9 8 8 9 8 7 8 8 7 7 6 7 7 7 7 7 7 7 7 7 7 6 4 2 1 -1 -1 0 -0 -0 2 3 4 5 6 6 7 7 7 7 6 6 6 6 6 6 7 7 7 7 7 7 8 7 7 8 8 8 8 8 8 8 8 8 8 nan
nan 7 8 8 8 8 7 6 6 6 8 9 8 7 7 7 8 8 8 8 8 9 8 7 7 8 9 8 6 6 7 8 8 7 7 8 9 9 8 9 9 9 8 8 8 7 6 6 7 8 8 8 7 6 6 7 7 7 7 7 6 5 4 2 -1 -2 -4 -2 1 3 4 5 6 6 7 6 6 6 5 5 5 6 6 7 7 7 7 8 8 8 8 8 8 8 8 8 8 8 8 8 8 8 nan
nan 7 7 8 8 8 7 6 6 7 8 9 8 8 7 8 8 8 8 8 8 9 9 7 6 6 8 7 6 5 7 8 7 7 7 8 8 8 8 9 9 9 8 9 9 7 6 7 8 9 8 8 7 7 7 6 6 7 8 8 8 7 7 6 4 3 -3 -6 -3 -0 3 5 5 6 6 6 5 5 5 5 5 5 6 6 7 7 7 8 8 8 8 8 8 8 8 8 8 8 8 7 7 7 nan
nan 8 7 7 7 7 5 5 6 8 9 8 8 8 8 8 8 8 7 7 8 9 9 7 6 6 6 7 7 5 7 8 7 7 7 7 7 7 7 8 9 9 9 10 9 8 6 7 8 8 8 8 7 7 8 6 6 7 8 8 7 7 7 7 7 8 4 -3 -6 -6 -1 4 5 5 6 6 5 5 4 4 5 5 6 6 6 6 7 7 8 8 9 9 8 8 8 8 8 8 7 7 7 7 nan
nan 8 8 7 6 5 4 6 8 10 9 8 7 8 8 8 8 8 7 6 7 9 9 8 7 6 6 7 8 7 7 7 6 6 7 7 7 7 7 8 9 9 9 9 9 8 7 7 7 8 8 8 8 8 7 6 7 8 8 8 7 7 7 6 7 9 8 4 -1 -7 -7 1 3 5 5 5 5 5 5 4 5 5 6 6 6 6 7 7 8 8 8 8 8 8 8 8 7 7 7 7 7 7 nan
nan 9 8 7 6 5 6 8 10 11 9 7 7 7 9 8 7 7 7 7 7 7 9 10 9 6 6 8 8 8 8 7 6 6 6 7 7 7 8 9 9 8 8 8 9 9 8 8 8 8 9 9 8 8 7 7 8 8 8 8 7 7 6 6 7 9 9 8 5 -1 -7 -5 1 4 4 5 5 5 4 5 5 5 6 6 6 6 7 7 7 7 8 8 8 8 8 7 7 7 7 7 7 7 nan
nan 9 8 7 6 6 8 9 11 11 9 7 7 7 8 7 7 7 8 7 7 6 8 10 9 7 6 7 8 8 8 8 7 5 6 7 8 8 8 9 8 8 8 8 9 9 8 8 8 9 9 9 8 7 7 8 8 9 8 8 8 7 6 7 8 9 9 7 6 5 -3 -7 -2 2 3 4 4 4 4 4 5 5 5 6 6 6 6 7 7 7 7 7 7 7 7 7 7 7 7 7 7 7 nan
nan 9 8 6 6 7 8 10 11 10 9 7 8 7 7 7 7 8 8 8 7 6 7 8 8 7 6 6 7 7 8 8 8 7 6 7 8 8 8 9 8 8 8 9 10 9 9 8 8 8 9 8 7 6 8 9 9 9 8 8 8 7 7 7 8 8 8 7 7 7 3 -3 -4 -1 2 3 4 4 4 4 4 4 5 6 6 6 6 6 7 7 7 7 7 7 7 7 7 7 7 7 8 8 nan
nan 8 7 7 7 7 8 10 10 10 8 8 7 8 7 7 8 8 9 9 8 6 7 8 8 7 6 6 7 7 7 7 8 8 7 7 7 7 9 10 9 9 9 9 10 10 9 8 7 8 9 8 6 6 8 9 9 10 9 9 8 7 7 8 8 9 9 8 8 7 7 4 -0 -0 2 3 4 4 3 2 3 4 5 5 5 6 6 6 6 6 6 7 6 6 6 6 7 7 8 8 8 9 nan
nan 6 6 7 7 7 8 10 10 9 8 8 7 7 7 7 8 8 8 9 8 7 7 8 9 8 7 6 6 7 7 7 8 8 8 8 7 7 8 9 9 8 9 9 10 10 9 8 8 8 8 8 7 7 7 8 11 11 10 9 8 7 7 8 9 9 9 9 8 7 7 7 6 5 4 5 5 3 -0 -0 2 3 4 5 5 5 6 6 6 6 6 6 6 6 6 6 7 8 8 9 9 10 nan
nan 6 6 7 8 8 9 10 10 9 8 8 8 7 8 8 8 7 7 8 8 7 6 8 10 10 8 7 7 6 7 8 9 9 9 8 8 7 8 9 9 8 9 9 10 10 9 9 8 8 7 7 7 7 6 7 11 11 10 8 8 7 7 8 9 9 9 9 8 7 6 7 8 8 8 7 7 4 -1 -2 1 3 4 5 5 5 6 6 6 6 6 6 6 5 6 6 7 8 9 9 10 10 nan
nan 7 6 7 8 8 9 11 11 10 9 8 8 7 8 8 8 8 8 8 7 6 5 8 9 11 8 6 7 7 7 8 10 11 11 9 8 5 8 11 10 10 9 10 9 10 9 9 8 8 7 7 8 8 6 7 9 9 8 8 8 7 6 7 8 9 9 8 7 7 6 6 7 8 8 8 8 6 3 1 1 2 4 5 5 5 6 6 6 6 6 5 5 5 6 7 7 8 9 10 10 10 nan
nan 8 6 6 7 7 8 10 12 11 9 9 8 7 7 8 8 10 11 11 9 6 4 5 8 10 9 6 6 6 7 8 11 12 12 10 10 9 9 10 11 11 10 10 9 9 9 9 8 8 7 7 7 7 7 8 8 8 8 8 8 6 6 7 8 9 9 7 6 6 7 7 7 8 8 7 8 7 7 5 3 3 4 5 5 5 6 7 7 6 5 5 5 5 6 7 8 9 9 10 10 9 nan
nan 6 6 6 6 7 8 9 10 11 9 8 7 6 6 7 8 10 15 16 14 9 5 3 4 7 9 8 6 6 6 8 12 13 11 10 11 11 10 9 10 10 10 10 9 9 8 8 8 8 8 7 7 7 8 8 8 9 8 7 8 6 6 7 8 8 7 5 5 6 7 7 7 7 7 7 7 7 8 8 7 5 4 4 6 8 10 8 7 5 4 4 4 5 6 7 8 9 9 9 9 9 nan
nan 7 8 7 7 7 7 8 9 9 9 9 8 8 8 8 8 8 11 17 18 14 9 5 3 3 6 6 6 4 5 8 12 14 10 7 8 9 9 8 9 11 11 9 8 7 8 7 7 6 7 6 6 7 8 9 9 9 8 8 7 7 7 8 8 8 5 4 6 6 6 7 8 8 7 7 8 7 8 8 7 7 6 7 9 12 11 8 7 5 3 3 4 5 7 8 8 9 9 9 8 8 nan
nan 9 9 8 7 7 6 7 8 8 8 8 8 8 8 8 7 6 5 9 15 17 14 9 7 4 3 4 5 4 4 7 12 15 11 6 10 11 10 8 9 11 11 9 8 7 8 6 5 3 4 5 7 9 10 9 9 9 8 8 7 7 7 7 8 7 6 5 5 6 6 7 8 8 7 6 6 7 7 7 7 7 8 9 10 10 9 5 0 0 1 3 5 6 7 8 8 8 8 8 8 8 nan
nan 9 8 7 7 7 6 7 8 8 7 6 6 7 7 7 7 7 4 4 8 13 15 13 11 8 4 5 6 7 5 8 11 12 11 10 13 13 10 8 8 8 10 11 10 8 6 7 6 1 2 8 10 11 10 10 9 9 8 7 7 7 7 7 8 7 6 5 6 6 7 8 8 7 6 5 6 6 6 6 7 7 8 7 7 6 6 2 -1 -4 -1 4 6 7 8 8 8 8 8 8 8 8 nan
nan 10 10 8 7 7 7 7 7 8 6 6 6 7 7 8 9 9 8 6 6 8 12 14 13 11 8 7 7 8 6 7 9 10 9 11 12 11 8 7 7 9 10 11 11 8 5 7 5 4 5 12 13 12 10 10 9 8 8 7 7 7 8 8 8 7 6 6 7 7 7 8 7 6 6 6 7 7 7 7 6 7 7 7 8 9 7 1 -3 -1 6 7 6 8 8 7 7 7 7 7 8 8 nan
nan 10 10 9 8 8 8 8 8 9 8 8 7 7 7 7 9 9 9 9 8 7 9 11 13 11 9 8 7 7 6 5 8 10 10 10 9 9 9 9 9 11 10 8 7 8 6 4 3 7 11 13 13 12 9 9 9 8 7 7 7 7 8 8 8 7 6 6 7 7 7 8 7 7 7 8 9 9 7 7 7 7 7 8 8 8 4 -1 -0 7 12 11 9 7 6 5 6 7 7 7 8 8 nan
nan 9 8 9 9 10 9 8 9 9 9 9 8 7 6 6 7 7 8 8 9 9 8 9 11 10 8 7 7 7 8 7 9 8 10 9 9 10 10 9 10 10 9 7 6 6 3 2 8 14 13 8 10 10 8 9 8 8 7 7 7 8 8 8 8 7 7 7 7 6 7 8 8 8 8 10 9 8 6 7 8 9 8 8 6 5 3 4 10 15 15 12 9 8 4 3 5 6 7 7 8 8 nan
nan 7 8 10 10 10 8 8 9 9 10 10 9 8 7 6 6 7 7 7 8 9 8 8 10 11 9 7 6 7 9 10 10 8 8 8 10 11 11 8 8 8 8 8 8 7 4 5 13 17 12 7 7 7 8 7 7 6 7 7 8 8 8 8 7 7 6 7 7 7 8 8 8 8 9 9 8 7 8 9 9 10 10 8 8 8 9 11 12 12 11 10 9 8 2 2 5 6 7 7 7 8 nan
nan 6 8 9 9 9 8 8 8 9 9 10 9 8 7 7 7 7 7 7 7 8 8 7 7 9 10 9 8 6 8 10 9 8 8 9 9 11 12 11 10 7 7 7 7 8 7 9 11 12 9 9 9 9 9 7 7 7 8 8 8 8 8 7 6 5 5 6 7 8 9 8 9 9 10 8 8 8 10 9 9 9 9 8 8 8 9 8 6 6 7 7 6 1 -3 2 5 6 7 7 7 8 nan
nan 8 8 8 8 8 9 8 7 7 9 9 9 8 8 8 8 7 7 7 8 9 9 8 7 8 10 10 9 6 6 7 8 9 8 9 8 8 10 11 11 10 8 7 8 6 7 9 10 6 7 9 11 9 8 6 8 9 9 9 9 8 6 5 4 4 5 6 7 9 9 10 9 8 9 8 9 10 10 10 9 9 9 9 9 8 6 3 3 4 1 -2 -4 -7 -2 3 6 7 7 7 7 8 nan
nan 9 7 8 9 9 8 8 8 8 8 8 8 8 8 8 8 7 7 7 8 9 11 10 9 9 10 9 8 6 6 7 9 10 10 9 8 7 7 8 9 10 11 11 11 9 9 7 7 7 8 8 9 9 6 5 6 7 8 9 9 7 4 4 5 6 8 9 9 8 9 8 8 8 8 8 9 9 10 10 10 9 10 9 9 7 4 5 7 6 2 0 -0 -0 3 5 6 6 7 7 7 7 nan
nan 8 7 7 8 8 7 7 8 8 8 8 9 9 8 8 8 8 8 8 8 9 10 10 9 8 9 9 7 6 6 8 10 10 10 9 8 7 6 8 9 10 10 10 10 11 10 9 8 8 8 6 5 5 5 8 7 7 6 6 6 6 6 7 9 10 11 11 10 9 8 7 7 8 7 7 8 8 9 10 10 10 9 8 7 7 8 11 11 11 12 11 8 4 4 6 6 6 7 7 7 7 nan
nan nan nan nan nan nan nan nan nan nan nan nan nan nan nan nan nan nan nan nan nan nan nan nan nan nan nan nan nan nan nan nan nan nan nan nan nan nan nan nan nan nan nan nan nan nan nan nan nan nan nan nan nan nan nan nan nan nan nan nan nan nan nan nan nan nan nan nan nan nan nan nan nan nan nan nan nan nan nan nan nan nan nan nan nan nan nan nan nan nan nan nan nan nan nan nan nan nan nan nan nan nan nan
CAPE
26 20 16 17 14 14 11 6 8 8 7 7 3 3 1 2 2 4 6 2 2 0 0 1 2 2 4 8 16 16 19 15 10 10 9 16 16 21 27 19 19 17 21 22 29 29 74 0 nan nan nan nan nan nan nan nan nan nan nan nan nan nan nan nan 109 109 123 111 90 90 93 83 94 94 125 158 158 177 215 226 226 273 314 350 354 354 332 290 262 262 236 251 244 244 180 133 133 93 74 77 77 85 111
23 20 10 11 11 11 7 7 14 14 11 9 5 5 4 8 8 11 11 9 9 6 5 6 8 8 10 17 20 20 25 19 16 16 18 29 29 47 45 40 40 38 34 41 60 60 102 nan nan nan nan nan nan nan nan nan nan nan nan nan nan nan nan nan 97 97 157 131 120 120 99 102 116 116 146 181 181 219 258 283 283 318 365 374 387 387 387 362 314 314 290 300 295 295 244 179 179 150 140 101 101 92 99
20 15 9 8 8 8 8 11 15 15 15 11 7 7 5 9 9 11 14 15 15 14 12 11 12 12 19 29 28 28 27 24 26 26 39 48 48 59 62 56 56 54 58 75 129 129 134 22 nan nan nan nan nan nan nan nan nan nan nan nan nan nan nan nan 95 95 196 169 158 158 147 123 125 125 154 203 203 241 302 324 324 364 392 412 406 406 401 394 390 390 363 353 322 322 271 224 224 170 184 154 154 113 105
27 24 21 10 7 7 10 15 15 15 11 9 8 8 8 8 8 10 15 19 19 19 15 12 10 10 16 18 17 17 18 24 32 32 47 57 57 63 67 61 61 64 77 123 237 237 nan nan nan nan nan nan nan nan nan nan nan nan nan nan nan nan nan 3 138 138 209 232 232 232 202 161 149 149 177 194 194 246 307 353 353 398 425 434 416 416 389 385 407 407 400 367 334 334 302 230 230 197 210 201 201 151 143
47 56 48 27 16 16 23 24 19 19 11 10 11 11 10 10 10 12 19 30 30 25 17 13 13 13 18 21 23 23 29 39 57 57 62 65 65 63 68 72 72 76 104 169 248 248 nan nan nan nan nan nan nan nan nan nan nan nan nan nan nan nan 0 29 161 161 242 282 297 297 298 249 235 235 202 202 202 236 258 321 321 386 412 439 423 423 398 396 419 419 391 408 371 371 334 277 277 242 214 206 206 198 191
78 77 65 47 36 36 35 30 27 27 22 20 17 17 20 16 16 23 41 44 44 35 31 27 26 26 31 35 38 38 47 59 71 71 79 83 83 80 78 90 90 93 136 220 211 211 nan nan nan nan nan nan nan nan nan nan nan nan nan nan nan nan 0 80 186 186 274 349 392 392 416 379 320 320 284 248 248 229 248 309 309 353 397 424 429 429 429 428 429 429 402 420 408 408 371 331 331 296 241 212 212 202 218
70 64 56 51 48 48 41 37 40 40 42 45 37 37 34 42 42 47 51 45 45 34 34 34 36 36 43 54 57 57 63 76 97 97 106 102 102 117 113 119 119 135 178 266 178 178 nan nan nan nan nan nan nan nan nan nan nan nan nan nan nan 0 1 78 214 214 346 426 499 499 530 566 497 497 406 342 342 298 277 298 298 341 385 386 366 366 414 439 465 465 461 431 448 448 410 398 398 362 297 211 211 159 150
58 51 46 49 47 47 49 52 58 58 61 63 50 50 56 60 60 57 53 46 46 40 40 40 49 49 51 69 82 82 96 104 121 121 142 140 140 157 165 159 159 196 235 262 186 186 51 nan nan nan nan nan nan nan nan nan nan nan nan nan nan 0 1 104 261 261 424 519 627 627 660 667 646 646 571 500 500 408 360 380 380 423 425 404 402 402 445 447 444 444 442 465 430 430 393 409 409 397 389 297 297 182 129
34 31 35 43 46 46 54 76 81 81 79 69 63 63 69 71 71 60 54 48 48 47 53 55 59 59 76 98 114 114 133 154 165 165 189 201 201 210 205 214 214 257 285 237 193 193 162 nan nan nan nan nan nan nan nan nan nan nan nan nan nan nan 10 147 351 351 509 617 707 707 712 717 722 722 671 596 596 498 476 499 499 554 526 470 489 489 485 481 475 475 446 469 436 436 400 416 416 405 455 359 359 268 148
30 28 32 39 53 53 72 93 83 83 73 81 67 67 72 75 75 70 70 64 64 70 70 81 95 95 119 136 170 170 194 221 233 233 246 259 259 253 265 259 259 308 299 250 189 189 210 nan nan nan nan nan nan nan nan nan nan nan nan nan nan nan 64 260 452 452 635 664 697 697 674 707 709 709 688 613 613 536 563 618 618 647 647 588 584 584 574 569 564 564 506 473 467 467 431 418 418 466 460 420 420 350 280
28 35 39 45 58 58 69 77 81 81 78 77 76 76 82 93 93 96 91 92 92 92 103 128 144 144 164 187 214 214 259 271 285 285 298 293 293 306 300 313 313 346 295 227 186 186 193 nan nan nan nan nan nan nan nan nan nan nan nan nan nan 19 135 327 565 565 680 653 659 659 638 670 676 676 653 655 655 657 686 715 715 775 799 771 710 710 646 605 567 567 508 446 437 437 433 449 449 504 489 482 482 475 472
45 54 58 57 76 76 74 66 72 72 70 76 89 89 102 107 107 120 124 127 127 130 145 163 184 184 210 239 270 270 301 314 328 328 321 334 334 307 319 331 331 321 250 203 156 156 62 nan nan nan nan nan nan nan nan nan nan nan nan nan nan 36 194 399 604 604 635 643 622 622 630 664 643 643 701 731 731 790 751 787 787 887 989 916 810 810 743 644 607 607 511 475 468 468 491 512 512 567 592 620 620 614 648
82 94 99 114 102 102 85 70 68 68 73 78 99 99 111 116 116 130 145 161 161 168 189 213 240 240 270 301 314 314 328 341 334 334 327 318 318 328 317 305 305 272 205 167 116 116 nan nan nan nan nan nan nan nan nan nan nan nan nan 3 3 72 247 436 590 590 594 603 611 611 647 711 749 749 751 780 780 805 826 867 867 983 979 1017 942 942 863 781 736 736 704 663 654 654 621 673 673 786 743 664 664 703 732
131 146 140 117 106 106 97 81 80 80 85 90 111 111 124 137 137 153 172 195 195 221 231 257 286 286 316 347 359 359 372 365 357 357 328 298 298 267 235 238 238 192 129 93 nan nan nan nan nan nan nan nan nan nan nan nan nan nan nan 20 20 119 258 430 553 553 584 590 599 599 635 702 742 742 745 737 737 738 739 760 760 863 932 967 959 959 926 882 877 877 870 870 776 776 781 854 854 936 883 798 798 709 705
146 47 30 33 85 85 86 86 77 77 82 93 114 114 136 163 163 182 208 221 221 248 291 303 333 333 344 372 382 382 354 308 281 281 236 191 191 163 137 118 118 81 76 nan nan nan nan nan nan nan nan nan nan nan nan nan nan nan nan 26 26 138 271 423 544 544 600 579 588 588 626 663 671 671 677 624 624 624 616 666 666 723 778 838 912 912 904 940 983 983 971 974 885 885 885 848 848 923 908 819 819 779 678
nan nan nan 11 38 38 54 54 59 59 63 81 117 117 150 179 179 204 231 260 260 289 318 347 358 358 369 417 362 362 248 191 105 105 78 71 71 47 35 25 25 16 nan nan nan nan nan nan nan nan nan nan nan nan nan nan nan nan nan 33 33 143 263 394 535 535 642 621 606 606 590 620 626 626 605 556 556 526 550 572 572 568 613 632 689 689 785 921 960 960 964 950 942 942 821 743 743 774 804 799 799 798 743
nan nan nan nan 8 8 17 19 26 26 40 67 101 101 153 186 186 226 254 283 283 311 339 367 325 325 266 182 183 183 11 4 0 0 nan 0 0 0 0 0 0 nan nan nan nan nan nan nan nan nan nan nan nan nan nan nan nan nan nan 26 26 120 255 384 501 501 602 634 644 644 630 603 587 587 536 509 509 504 551 548 548 573 571 593 621 621 648 696 717 717 792 807 850 850 721 674 674 707 821 777 777 736 687
nan nan nan nan nan nan nan 2 11 11 29 61 94 94 147 193 193 231 258 286 286 297 289 250 175 175 92 27 nan nan nan nan nan nan nan nan nan nan nan nan nan nan nan nan nan nan nan nan nan nan nan nan nan nan nan nan nan nan nan 1 1 62 175 309 420 420 541 622 631 631 589 547 498 498 446 444 444 467 504 552 552 548 574 573 572 572 537 562 584 584 606 650 655 655 598 554 554 658 766 649 649 605 558
nan nan nan nan nan nan nan nan 6 6 26 63 96 96 141 185 185 220 245 228 228 185 145 91 35 35 1 nan nan nan nan nan nan nan nan nan nan nan nan nan nan nan nan nan nan nan nan nan nan nan nan nan nan nan nan nan nan nan nan nan nan 5 65 189 303 303 434 460 466 466 477 465 364 364 344 361 361 355 397 463 463 481 504 562 557 557 584 578 569 569 526 516 504 504 461 453 453 447 505 428 428 418 406
nan nan nan nan nan nan nan nan nan nan 3 30 31 31 104 67 67 16 9 nan nan nan nan nan nan nan nan nan nan nan nan nan nan nan nan nan nan nan nan nan nan nan nan nan nan nan nan nan nan nan nan nan nan nan nan nan nan nan nan nan nan nan nan 1 20 20 54 41 29 29 27 25 26 26 46 70 70 96 128 201 201 236 311 401 482 482 573 567 561 561 489 447 436 436 461 421 421 409 362 350 350 274 294
nan nan nan nan nan nan nan nan nan nan nan nan nan nan nan nan nan nan nan nan nan nan nan nan nan nan nan nan nan nan nan nan nan nan nan nan nan nan nan nan nan nan nan nan nan nan nan nan nan nan nan nan nan nan nan nan nan nan nan nan nan nan nan nan 2 2 4 6 8 8 10 12 15 15 18 19 19 31 81 132 132 187 220 255 337 337 471 527 522 522 521 485 475 475 461 444 444 428 413 372 372 331 294
nan nan nan nan nan nan nan nan nan nan nan nan nan nan nan nan nan nan nan nan nan nan nan nan nan nan nan nan nan nan nan nan nan nan nan nan nan nan nan nan nan nan nan nan nan nan nan nan nan nan nan nan nan nan nan nan nan nan nan nan nan nan nan nan 0 0 5 8 7 7 8 11 12 12 15 18 18 29 59 121 121 153 187 225 285 285 437 515 547 547 542 509 429 429 407 433 433 456 444 424 424 387 357
nan nan nan nan nan nan nan nan nan nan nan nan nan nan nan nan nan nan nan nan nan nan nan nan nan nan nan nan nan nan nan nan nan nan nan nan nan nan nan nan nan nan nan nan nan nan nan nan nan nan nan nan nan nan nan nan nan nan nan nan nan nan nan nan 0 0 7 10 10 10 8 10 10 10 12 18 18 30 55 119 119 150 178 232 326 326 453 501 546 546 500 364 242 242 220 231 231 294 392 376 376 391 388
nan nan nan nan nan nan nan nan nan nan nan nan nan nan nan nan nan nan nan nan nan nan nan nan nan nan nan nan nan nan nan nan nan nan nan nan nan nan nan nan nan nan nan nan nan nan nan nan nan nan nan nan nan nan nan nan nan nan nan nan nan nan nan nan 1 1 9 11 10 10 8 8 6 6 8 17 17 28 44 97 97 131 161 232 396 396 438 421 441 441 297 158 66 66 52 50 50 81 155 213 213 282 308
nan nan nan nan nan nan nan nan nan nan nan nan nan nan nan nan nan nan nan nan nan nan nan nan nan nan nan nan nan nan nan nan nan nan nan nan nan nan nan nan nan nan nan nan nan nan nan nan nan nan nan nan nan nan nan nan nan nan nan nan nan nan nan nan nan nan 7 7 6 6 4 4 4 4 6 12 12 23 38 55 55 75 109 190 208 208 225 205 127 127 75 34 18 18 40 21 21 44 92 95 95 116 159
nan nan nan nan nan nan nan nan nan nan nan nan nan nan nan nan nan nan nan nan nan nan nan nan nan nan nan nan nan nan nan nan nan nan nan nan nan nan nan nan nan nan nan nan nan nan nan nan nan nan nan nan nan nan nan nan nan nan nan nan nan nan nan nan nan nan 1 3 2 2 1 1 2 2 4 7 7 16 27 48 48 59 61 73 73 73 62 48 32 32 21 5 3 3 23 9 9 25 51 26 26 37 71
nan nan nan nan nan nan nan nan nan nan nan nan nan nan nan nan nan nan nan nan nan nan nan nan nan nan nan nan nan nan nan nan nan nan nan nan nan nan nan nan nan nan nan nan nan nan nan nan nan nan nan nan nan nan nan nan nan nan nan nan nan nan nan nan nan nan nan 0 0 0 0 0 1 1 2 5 5 11 16 30 30 37 36 39 30 30 27 19 8 8 nan nan 4 4 9 6 6 18 18 4 4 nan 0
nan nan nan nan nan nan nan nan nan nan nan nan nan nan nan nan nan nan nan nan nan nan nan nan nan nan nan nan nan nan nan nan nan nan nan nan nan nan nan nan nan nan nan nan nan nan nan nan nan nan nan nan nan nan nan nan nan nan nan nan nan nan nan nan nan nan nan nan nan nan nan nan 0 0 2 3 3 8 7 13 13 17 18 17 16 16 9 5 2 2 nan nan nan nan 0 2 2 15 18 0 0 nan nan
nan nan nan nan nan nan nan nan nan nan nan nan nan nan nan nan nan nan nan nan nan nan nan nan nan nan nan nan nan nan nan nan nan nan nan nan nan nan nan nan nan nan nan nan nan nan nan nan nan nan nan nan nan nan nan nan nan nan nan nan nan nan nan nan nan nan nan nan nan nan nan nan nan nan 0 0 0 1 1 6 6 7 7 8 4 4 1 nan nan nan nan nan nan nan nan 1 1 7 10 nan nan nan nan
nan nan nan nan nan nan nan nan nan nan nan nan nan nan nan nan nan nan nan nan nan nan nan nan nan nan nan nan nan nan nan nan nan nan nan nan nan nan nan nan nan nan nan nan nan nan nan nan nan nan nan nan nan nan nan nan nan nan nan nan nan nan nan nan nan nan nan nan nan nan nan nan nan nan nan nan nan nan nan nan nan nan 0 0 nan nan nan nan nan nan nan nan nan nan nan nan nan nan nan nan nan nan nan
nan nan nan nan nan nan nan nan nan nan nan nan nan nan nan nan nan nan nan nan nan nan nan nan nan nan nan nan nan nan nan nan nan nan nan nan nan nan nan nan nan nan nan nan nan nan nan nan nan nan nan nan nan nan nan nan nan nan nan nan nan nan nan nan nan nan nan nan nan nan nan nan nan nan nan nan nan nan nan nan nan nan nan nan nan nan nan nan nan nan nan nan nan nan nan nan nan nan nan nan nan nan nan
nan nan nan nan nan nan nan nan nan nan nan nan nan nan nan nan nan nan nan nan nan nan nan nan nan nan nan nan nan nan nan nan nan nan nan nan nan nan nan nan nan nan nan nan nan nan nan nan nan nan nan nan nan nan nan nan nan nan nan nan nan nan nan nan nan nan nan nan nan nan nan nan nan nan nan nan nan nan nan nan nan nan nan nan nan nan nan nan nan nan nan nan nan nan nan nan nan nan nan nan nan nan nan
nan nan nan nan nan nan nan nan nan nan nan nan nan nan nan nan nan nan nan nan nan nan nan nan nan nan nan nan nan nan nan nan nan nan nan nan nan nan nan nan nan nan nan nan nan nan nan nan nan nan nan nan nan nan nan nan nan nan nan nan nan nan nan nan nan nan nan nan nan nan nan nan nan nan nan nan nan nan nan nan nan nan nan nan nan nan nan nan nan nan nan nan nan nan nan nan nan nan nan nan nan nan nan
nan nan nan nan nan nan nan nan nan nan nan nan nan nan nan nan nan nan nan nan nan nan nan nan nan nan nan nan nan nan nan nan nan nan nan nan nan nan nan nan nan nan nan nan nan nan nan nan nan nan nan nan nan nan nan nan nan nan nan nan nan nan nan nan nan nan nan nan nan nan nan nan nan nan nan nan nan nan nan nan nan nan nan nan nan nan nan nan nan nan nan nan nan nan nan nan nan nan nan nan nan nan nan
nan nan nan nan nan nan nan nan nan nan nan nan nan nan nan nan nan nan nan nan nan nan nan nan nan nan nan nan nan nan nan nan nan nan nan nan nan nan nan nan nan nan nan nan nan nan nan nan nan nan nan nan nan nan nan nan nan nan nan nan nan nan nan nan nan nan nan nan nan nan nan nan nan nan nan nan nan nan nan nan nan nan nan nan nan nan nan nan nan nan nan nan nan nan nan nan nan nan nan nan nan nan nan
nan nan nan nan nan nan nan nan nan nan nan nan nan nan nan nan nan nan nan nan nan nan nan nan nan nan nan nan nan nan nan nan nan nan nan nan nan nan nan nan nan nan nan nan nan nan nan nan nan nan nan nan nan nan nan nan nan nan nan nan nan nan nan nan nan nan nan nan nan nan nan nan nan nan nan nan nan nan nan nan nan nan nan nan nan nan nan nan nan nan nan nan nan nan nan nan nan nan nan nan nan nan nan
nan nan nan nan nan nan nan nan nan nan nan nan nan nan nan nan nan nan nan nan nan nan nan nan nan nan nan nan nan nan nan nan nan nan nan nan nan nan nan nan nan nan nan nan nan nan nan nan nan nan nan nan nan nan nan nan nan nan nan nan nan nan nan nan nan nan nan nan nan nan nan nan nan nan nan nan nan nan nan nan nan nan nan nan nan nan nan nan nan nan nan nan nan nan nan nan nan nan nan nan nan nan nan
nan nan nan nan nan nan nan nan nan nan nan nan nan nan nan nan nan nan nan nan nan nan nan nan nan nan nan nan nan nan nan nan nan nan nan nan nan nan nan nan nan nan nan nan nan nan nan nan nan nan nan nan nan nan nan nan nan nan nan nan nan nan nan nan nan nan nan nan nan nan nan nan nan nan nan nan nan nan nan nan nan nan nan nan nan nan nan nan nan nan nan nan nan nan nan nan nan nan nan nan nan nan nan
nan nan nan nan nan nan nan nan nan nan nan nan nan nan nan nan nan nan nan nan nan nan nan nan nan nan nan nan nan nan nan nan nan nan nan nan nan nan nan nan nan nan nan nan nan nan nan nan nan nan nan nan nan nan nan nan nan nan nan nan nan nan nan nan nan nan nan nan nan nan nan nan nan nan nan nan nan nan nan nan nan nan nan nan nan nan nan nan nan nan nan nan nan nan nan nan nan nan nan nan nan nan nan
nan nan nan nan nan nan nan nan nan nan nan nan nan nan nan nan nan nan nan nan nan nan nan nan nan nan nan nan nan nan nan nan nan nan nan nan nan nan nan nan nan nan nan nan nan nan nan nan nan nan nan nan nan nan nan nan nan nan nan nan nan nan nan nan nan nan nan nan nan nan nan nan nan nan nan nan nan nan nan nan nan nan nan nan nan nan nan nan nan nan nan nan nan nan nan nan nan nan nan nan nan nan nan
nan nan nan nan nan nan nan nan nan nan nan nan nan nan nan nan nan nan nan nan nan nan nan nan nan nan nan nan nan nan nan nan nan nan nan nan nan nan nan nan nan nan nan nan nan nan nan nan nan nan nan nan nan nan nan nan nan nan nan nan nan nan nan nan nan nan nan nan nan nan nan nan nan nan nan nan nan nan nan nan nan nan nan nan nan nan nan nan nan nan nan nan nan nan nan nan nan nan nan nan nan nan nan
nan nan nan nan nan nan nan nan nan nan nan nan nan nan nan nan nan nan nan nan nan nan nan nan nan nan nan nan nan nan nan nan nan nan nan nan nan nan nan nan nan nan nan nan nan nan nan nan nan nan nan nan nan nan nan nan nan nan nan nan nan nan nan nan nan nan nan nan nan nan nan nan nan nan nan nan nan nan nan nan nan nan nan nan nan nan nan nan nan nan nan nan nan nan nan nan nan nan nan nan nan nan nan
nan nan nan nan nan nan nan nan nan nan nan nan nan nan nan nan nan nan nan nan nan nan nan nan nan nan nan nan nan nan nan nan nan nan nan nan nan nan nan nan nan nan nan nan nan nan nan nan nan nan nan nan nan nan nan nan nan nan nan nan nan nan nan nan nan nan nan nan nan nan nan nan nan nan nan nan nan nan nan nan nan nan nan nan nan nan nan nan nan nan nan nan nan nan nan nan nan nan nan nan nan nan nan
nan nan nan nan nan nan nan nan nan nan nan nan nan nan nan nan nan nan nan nan nan nan nan nan nan nan nan nan nan nan nan nan nan nan nan nan nan nan nan nan nan nan nan nan nan nan nan nan nan nan nan nan nan nan nan nan nan nan nan nan nan nan nan nan nan nan nan nan nan nan nan nan nan nan nan nan nan nan nan nan nan nan nan nan nan nan nan nan nan nan nan nan nan nan nan nan nan nan nan nan nan nan nan
nan nan nan nan nan nan nan nan nan nan nan nan nan nan nan nan nan nan nan nan nan nan nan nan nan nan nan nan nan nan nan nan nan nan nan nan nan nan nan nan nan nan nan nan nan nan nan nan nan nan nan nan nan nan nan nan nan nan nan nan nan nan nan nan nan nan nan nan nan nan nan nan nan nan nan nan nan nan nan nan nan nan nan nan nan nan nan nan nan nan nan nan nan nan nan nan nan nan nan nan nan nan nan
nan nan nan nan nan nan nan nan nan nan nan nan nan nan nan nan nan nan nan nan nan nan nan nan nan nan nan nan nan nan nan nan nan nan nan nan nan nan nan nan nan nan nan nan nan nan nan nan nan nan nan nan nan nan nan nan nan nan nan nan nan nan nan nan nan nan nan nan nan nan nan nan nan nan nan nan nan nan nan nan nan nan nan nan nan nan nan nan nan nan nan nan nan nan nan nan nan nan nan nan nan nan nan
nan nan nan nan nan nan nan nan nan nan nan nan nan nan nan nan nan nan nan nan nan nan nan nan nan nan nan nan nan nan nan nan nan nan nan nan nan nan nan nan nan nan nan nan nan nan nan nan nan nan nan nan nan nan nan nan nan nan nan nan nan nan nan nan nan nan nan nan nan nan nan nan nan nan nan nan nan nan nan nan nan nan nan nan nan nan nan nan nan nan nan nan nan nan nan nan nan nan nan nan nan nan nan
nan nan nan nan nan nan nan nan nan nan nan nan nan nan nan nan nan nan nan nan nan nan nan nan nan nan nan nan nan nan nan nan nan nan nan nan nan nan nan nan nan nan nan nan nan nan nan nan nan nan nan nan nan nan nan nan nan nan nan nan nan nan nan nan nan nan nan nan nan nan nan nan nan nan nan nan nan nan nan nan nan nan nan nan nan nan nan nan nan nan nan nan nan nan nan nan nan nan nan nan nan nan nan
nan nan nan nan nan nan nan nan nan nan nan nan nan nan nan nan nan nan nan nan nan nan nan nan nan nan nan nan nan nan nan nan nan nan nan nan nan nan nan nan nan nan nan nan nan nan nan nan nan nan nan nan nan nan nan nan nan nan nan nan nan nan nan nan nan nan nan nan nan nan nan nan nan nan nan nan nan nan nan nan nan nan nan nan nan nan nan nan nan nan nan nan nan nan nan nan nan nan nan nan nan nan nan
nan nan nan nan nan nan nan nan nan nan nan nan nan nan nan nan nan nan nan nan nan nan nan nan nan nan nan nan nan nan nan nan nan nan nan nan nan nan nan nan nan nan nan nan nan nan nan nan nan nan nan nan nan nan nan nan nan nan nan nan nan nan nan nan nan nan nan nan nan nan nan nan nan nan nan nan nan nan nan nan nan nan nan nan nan nan nan nan nan nan nan nan nan nan nan nan nan nan nan nan nan nan nan
nan nan nan nan nan nan nan nan nan nan nan nan nan nan nan nan nan nan nan nan nan nan nan nan nan nan nan nan nan nan nan nan nan nan nan nan nan nan nan nan nan nan nan nan nan nan nan nan nan nan nan nan nan nan nan nan nan nan nan nan nan nan nan nan nan nan nan nan nan nan nan nan nan nan nan nan nan nan nan nan nan nan nan nan nan nan nan nan nan nan nan nan nan nan nan nan nan nan nan nan nan nan nan
nan nan nan nan nan nan nan nan nan nan nan nan nan nan nan nan nan nan nan nan nan nan nan nan nan nan nan nan nan nan nan nan nan nan nan nan nan nan nan nan nan nan nan nan nan nan nan nan nan nan nan nan nan nan nan nan nan nan nan nan nan nan nan nan nan nan nan nan nan nan nan nan nan nan nan nan nan nan nan nan nan nan nan nan nan nan nan nan nan nan nan nan nan nan nan nan nan nan nan nan nan nan 0
nan nan nan nan nan nan nan nan nan nan nan nan nan nan nan nan nan nan nan nan nan nan nan nan nan nan nan nan nan nan nan nan nan nan nan nan nan nan nan nan nan nan nan nan nan nan nan nan nan nan nan nan nan nan nan nan nan nan nan nan nan nan nan nan nan nan nan nan nan nan nan nan nan nan nan nan nan nan nan nan nan nan nan nan nan nan nan nan nan nan nan nan nan nan nan nan nan nan nan nan nan nan 0
nan nan nan nan nan nan nan nan nan nan nan nan nan nan nan nan nan nan nan nan nan nan nan nan nan nan nan nan nan nan nan nan nan nan nan nan nan nan nan nan nan nan nan nan nan nan nan nan nan nan nan nan nan nan nan nan nan nan nan nan nan nan nan nan nan nan nan nan nan nan nan nan nan nan nan nan nan nan nan nan nan nan nan nan nan nan nan nan nan nan nan nan nan nan nan nan nan nan nan nan nan nan 1
nan nan nan nan nan nan nan nan nan nan nan nan nan nan nan nan nan nan nan nan nan nan nan nan nan nan nan nan nan nan nan nan nan nan nan nan nan nan nan nan nan nan nan nan nan nan nan nan nan nan nan nan nan nan nan nan nan nan nan nan nan nan nan nan nan nan nan nan nan nan nan nan nan nan nan nan nan nan nan nan nan nan nan nan nan nan nan nan nan nan nan nan nan nan nan nan nan nan nan nan nan nan 1
nan nan nan nan nan nan nan nan nan nan nan nan nan nan nan nan nan nan nan nan nan nan nan nan nan nan nan nan nan nan nan nan nan nan nan nan nan nan nan nan nan nan nan nan nan nan nan nan nan nan nan nan nan nan nan nan nan nan nan nan nan nan nan nan nan nan nan nan nan nan nan nan nan nan nan nan nan nan nan nan nan nan nan nan nan nan nan nan nan nan nan nan nan nan nan nan nan nan nan nan nan nan 1
nan nan nan nan nan nan nan nan nan nan nan nan nan nan nan nan nan nan nan nan nan nan nan nan nan nan nan nan nan nan nan nan nan nan nan nan nan nan nan nan nan nan nan nan nan nan nan nan nan nan nan nan nan nan nan nan nan nan nan nan nan nan nan nan nan nan nan nan nan nan nan nan nan nan nan nan nan nan nan nan nan nan nan nan nan nan nan nan nan nan nan nan nan nan nan nan nan nan nan nan nan nan 2
nan nan nan nan nan nan nan nan nan nan nan nan nan nan nan nan nan nan nan nan nan nan nan nan nan nan nan nan nan nan nan nan nan nan nan nan nan nan nan nan nan nan nan nan nan nan nan nan nan nan nan nan nan nan nan nan nan nan nan nan nan nan nan nan nan nan nan nan nan nan nan nan nan nan nan nan nan nan nan nan nan nan nan nan nan nan nan nan nan nan nan nan nan nan nan nan nan nan nan nan nan 1 5
nan nan nan nan nan nan nan nan nan nan nan nan nan nan nan nan nan nan nan nan nan nan nan nan nan nan nan nan nan nan nan nan nan nan nan nan nan nan nan nan nan nan nan nan nan nan nan nan nan nan nan nan nan nan nan nan nan nan nan nan nan nan nan nan nan nan nan nan nan nan nan nan nan nan nan nan nan nan nan nan nan nan nan nan nan nan nan nan nan nan nan nan nan nan nan nan nan nan nan 0 0 4 10
nan nan nan nan nan nan nan nan nan nan nan nan nan nan nan nan nan nan nan nan nan nan nan nan nan nan nan nan nan nan nan nan nan nan nan nan nan nan nan nan nan nan nan nan nan nan nan nan nan nan nan nan nan nan nan nan nan nan nan nan nan nan nan nan nan nan nan nan nan nan nan nan nan nan nan nan nan nan nan nan nan nan nan nan nan nan nan nan nan nan nan nan nan nan nan nan nan nan nan 2 2 8 16
nan nan nan nan nan nan nan nan nan nan nan nan nan nan nan nan nan nan nan nan nan nan nan nan nan nan nan nan nan nan nan nan nan nan nan nan nan nan nan nan nan nan nan nan nan nan nan nan nan nan nan nan nan nan nan nan nan nan nan nan nan nan nan nan nan nan nan nan nan nan nan nan nan nan nan nan nan nan nan nan nan nan nan nan nan nan nan nan nan nan nan nan nan nan nan nan nan nan 0 5 5 13 23